| time (UTC) | temp F | wind direction | speed MPH | gust MPH | rain 1hr in | rain 24hr in | rain mn in | humidity % | barometer mb |
| 20260505022518 | 60 | 149 | 7.0 | 12.0 | 0.00 | 0.02 | 0.02 | 48 | 1006.3 |
| 20260505021520 | 60 | 143 | 7.0 | 10.0 | 0.00 | 0.02 | 0.02 | 47 | 1005.9 |
| 20260505020523 | 61 | 152 | 8.0 | 11.0 | 0.00 | 0.02 | 0.02 | 47 | 1005.7 |
| 20260505015545 | 61 | 166 | 6.0 | 9.0 | 0.00 | 0.02 | 0.02 | 46 | 1005.4 |
| 20260505014528 | 62 | 144 | 6.0 | 10.0 | 0.00 | 0.02 | 0.02 | 45 | 1005.1 |
| 20260505013551 | 63 | 162 | 8.0 | 11.0 | 0.00 | 0.02 | 0.02 | 44 | 1004.7 |
| 20260505012535 | 63 | 154 | 7.0 | 11.0 | 0.00 | 0.02 | 0.02 | 43 | 1004.3 |
| 20260505011518 | 64 | 154 | 7.0 | 9.0 | 0.00 | 0.02 | 0.02 | 43 | 1004.1 |
| 20260505010520 | 65 | 149 | 8.0 | 15.0 | 0.00 | 0.02 | 0.02 | 44 | 1004.0 |
| 20260505005543 | 66 | 159 | 7.0 | 11.0 | 0.00 | 0.02 | 0.02 | 44 | 1003.8 |
| 20260505004525 | 67 | 144 | 8.0 | 15.0 | 0.00 | 0.02 | 0.02 | 43 | 1003.6 |
| 20260505003522 | 68 | 154 | 11.0 | 16.0 | 0.00 | 0.02 | 0.02 | 42 | 1003.2 |
| 20260505002519 | 69 | 149 | 9.0 | 12.0 | 0.00 | 0.02 | 0.02 | 41 | 1003.1 |
| 20260505001515 | 70 | 132 | 9.0 | 12.0 | 0.00 | 0.02 | 0.02 | 41 | 1003.0 |
| 20260505000518 | 71 | 168 | 10.0 | 18.0 | 0.00 | 0.02 | 0.02 | 42 | 1002.8 |
| 20260504235520 | 72 | 154 | 11.0 | 16.0 | 0.00 | 0.02 | 0.02 | 40 | 1002.5 |
| 20260504234543 | 0 | 158 | 5.0 | 5.0 | 0.00 | 0.02 | 0.02 | 1002.5 | |
| 20260504233526 | 73 | 168 | 8.0 | 11.0 | 0.00 | 0.02 | 0.02 | 41 | 1002.2 |
| 20260504232529 | 74 | 186 | 9.0 | 13.0 | 0.00 | 0.02 | 0.02 | 39 | 1002.2 |
| 20260504231531 | 75 | 163 | 11.0 | 15.0 | 0.00 | 0.02 | 0.02 | 38 | 1001.9 |
| 20260504230515 | 77 | 162 | 10.0 | 18.0 | 0.00 | 0.02 | 0.02 | 39 | 1001.8 |
| 20260504225518 | 77 | 148 | 10.0 | 16.0 | 0.00 | 0.02 | 0.02 | 39 | 1001.7 |
| 20260504224520 | 78 | 147 | 10.0 | 17.0 | 0.00 | 0.02 | 0.02 | 40 | 1001.5 |
| 20260504223523 | 79 | 151 | 10.0 | 13.0 | 0.00 | 0.02 | 0.02 | 40 | 1001.3 |
| 20260504222546 | 79 | 152 | 9.0 | 11.0 | 0.00 | 0.02 | 0.02 | 41 | 1001.0 |
| 20260504221528 | 80 | 161 | 10.0 | 16.0 | 0.00 | 0.02 | 0.02 | 41 | 1001.0 |
| 20260504220531 | 80 | 144 | 10.0 | 16.0 | 0.00 | 0.02 | 0.02 | 42 | 1000.9 |
| 20260504215515 | 81 | 148 | 10.0 | 15.0 | 0.01 | 0.02 | 0.02 | 41 | 1000.8 |
| 20260504214518 | 83 | 113 | 8.0 | 14.0 | 0.01 | 0.02 | 0.02 | 37 | 1000.6 |
| 20260504213521 | 82 | 131 | 9.0 | 14.0 | 0.01 | 0.02 | 0.02 | 37 | 1000.6 |
| 20260504212517 | 81 | 138 | 7.0 | 12.0 | 0.01 | 0.02 | 0.02 | 37 | 1000.5 |
| 20260504211526 | 80 | 125 | 4.0 | 7.0 | 0.01 | 0.02 | 0.02 | 41 | 1000.7 |
| 20260504210528 | 80 | 126 | 4.0 | 8.0 | 0.02 | 0.02 | 0.02 | 42 | 1000.8 |
| 20260504205531 | 81 | 130 | 6.0 | 9.0 | 0.01 | 0.01 | 0.01 | 43 | 1001.0 |
| 20260504204515 | 80 | 124 | 4.0 | 6.0 | 0.01 | 0.01 | 0.01 | 44 | 1001.0 |
| 20260504203531 | 80 | 145 | 6.0 | 10.0 | 0.01 | 0.01 | 0.01 | 49 | 1001.1 |
| 20260504202515 | 78 | 163 | 3.0 | 6.0 | 0.01 | 0.01 | 0.01 | 58 | 1001.3 |
| 20260504201518 | 77 | 162 | 4.0 | 6.0 | 0.01 | 0.01 | 0.01 | 51 | 1001.3 |
| 20260504200521 | 80 | 128 | 6.0 | 9.0 | 0.00 | 0.00 | 0.00 | 42 | 1001.4 |
| 20260504195523 | 82 | 134 | 6.0 | 9.0 | 0.00 | 0.00 | 0.00 | 41 | 1001.5 |
| 20260504194526 | 82 | 137 | 5.0 | 8.0 | 0.00 | 0.00 | 0.00 | 41 | 1001.5 |
| 20260504193528 | 81 | 153 | 6.0 | 9.0 | 0.00 | 0.00 | 0.00 | 42 | 1001.7 |
| 20260504192531 | 81 | 121 | 5.0 | 9.0 | 0.00 | 0.00 | 0.00 | 42 | 1001.7 |
| 20260504191516 | 83 | 128 | 5.0 | 7.0 | 0.00 | 0.00 | 0.00 | 41 | 1001.9 |
| 20260504190539 | 82 | 148 | 8.0 | 11.0 | 0.00 | 0.00 | 0.00 | 40 | 1001.9 |
| 20260504185521 | 82 | 135 | 5.0 | 11.0 | 0.00 | 0.00 | 0.00 | 42 | 1001.8 |
| 20260504184524 | 0 | 113 | 6.0 | 6.0 | 0.00 | 0.00 | 0.00 | 1002.2 | |
| 20260504183521 | 82 | 129 | 7.0 | 13.0 | 0.00 | 0.00 | 0.00 | 40 | 1002.0 |
| 20260504182518 | 81 | 155 | 6.0 | 9.0 | 0.00 | 0.00 | 0.00 | 41 | 1002.0 |
| 20260504181532 | 83 | 146 | 6.0 | 11.0 | 0.00 | 0.00 | 0.00 | 40 | 1002.0 |
| 20260504180517 | 82 | 139 | 6.0 | 12.0 | 0.00 | 0.00 | 0.00 | 42 | 1002.0 |
| 20260504175519 | 83 | 122 | 5.0 | 8.0 | 0.00 | 0.00 | 0.00 | 41 | 1002.0 |
| 20260504174522 | 82 | 131 | 5.0 | 8.0 | 0.00 | 0.00 | 0.00 | 42 | 1002.0 |
| 20260504173544 | 81 | 142 | 4.0 | 6.0 | 0.00 | 0.00 | 0.00 | 41 | 1002.2 |
| 20260504172547 | 82 | 108 | 5.0 | 7.0 | 0.00 | 0.00 | 0.00 | 42 | 1002.2 |
| 20260504171529 | 81 | 125 | 4.0 | 5.0 | 0.00 | 0.00 | 0.00 | 43 | 1002.2 |
| 20260504170532 | 80 | 111 | 5.0 | 13.0 | 0.00 | 0.00 | 0.00 | 44 | 1002.2 |
| 20260504150522 | 73 | 84 | 4.0 | 7.0 | 0.00 | 0.00 | 0.00 | 56 | 1003.7 |
| 20260504140533 | 63 | 131 | 3.0 | 4.0 | 0.00 | 0.00 | 0.00 | 68 | 1004.6 |
| 20260504130530 | 57 | 140 | 1.0 | 2.0 | 0.00 | 0.00 | 0.00 | 79 | 1004.7 |
| 20260504110525 | 42 | 0.0 | 0.0 | 0.00 | 0.00 | 0.00 | 99 | 1005.3 | |
| 20260504100523 | 43 | 0.0 | 0.0 | 0.00 | 0.00 | 0.00 | 91 | 1005.8 | |
| 20260504081516 | 43 | 77 | 1.0 | 2.0 | 0.00 | 0.00 | 0.00 | 99 | 1007.0 |
| 20260504080518 | 43 | 0.0 | 0.0 | 0.00 | 0.00 | 0.00 | 99 | 1007.1 | |
| 20260504050530 | 47 | 263 | 1.0 | 2.0 | 0.00 | 0.00 | 0.00 | 89 | 1008.8 |
| 20260504045533 | 48 | 135 | 0.0 | 1.0 | 0.00 | 0.00 | 0.00 | 85 | 1008.9 |
| 20260504044518 | 49 | 0.0 | 0.0 | 0.00 | 0.00 | 0.00 | 83 | 1008.9 | |
| 20260504043520 | 49 | 220 | 1.0 | 2.0 | 0.00 | 0.00 | 0.00 | 84 | 1009.1 |
| 20260504042523 | 49 | 152 | 1.0 | 2.0 | 0.00 | 0.00 | 0.00 | 84 | 1009.2 |
| 20260504041546 | 50 | 0.0 | 0.0 | 0.00 | 0.00 | 0.00 | 77 | 1009.3 | |
| 20260504040528 | 51 | 0.0 | 0.0 | 0.00 | 0.00 | 0.00 | 76 | 1009.3 | |
| 20260504035525 | 51 | 0.0 | 0.0 | 0.00 | 0.00 | 0.00 | 74 | 1009.3 | |
| 20260504034515 | 52 | 0.0 | 0.0 | 0.00 | 0.00 | 0.00 | 74 | 1009.4 | |
| 20260504033518 | 53 | 0.0 | 0.0 | 0.00 | 0.00 | 0.00 | 73 | 1009.5 | |
| 20260504032541 | 53 | 0.0 | 0.0 | 0.00 | 0.00 | 0.00 | 73 | 1009.5 | |
| 20260504031523 | 54 | 0.0 | 0.0 | 0.00 | 0.00 | 0.00 | 74 | 1009.5 | |
| 20260504030526 | 54 | 0.0 | 0.0 | 0.00 | 0.00 | 0.00 | 75 | 1009.5 | |
| 20260504025549 | 55 | 115 | 1.0 | 2.0 | 0.00 | 0.00 | 0.00 | 72 | 1009.4 |
| 20260504024531 | 56 | 0.0 | 2.0 | 0.00 | 0.00 | 0.00 | 67 | 1009.3 | |
| 20260504023537 | 57 | 109 | 2.0 | 2.0 | 0.00 | 0.00 | 0.00 | 64 | 1009.2 |